DAL7623 KMSP-KDEN

Flight info

Callsign DAL7623
Flight time N/A
Altitude 36000
Route SCHEP1 RXANN YANKI LANDR3
Aircraft A20N/M-SDE2E3FGHIRWXY/LB1

Departure

Time 2026-05-06 22:19
Airport Minneapolis–Saint Paul International Airport / Wold–Chamberlain Field (KMSP)

Arrival

Time N/A
Airport Denver International Airport (KDEN)
Time Latitude Longitude Altitude Speed Heading
2026-05-06 22:01 44.88419 -93.21560 852 ft 0 kts 198°
2026-05-06 22:03 44.88420 -93.21560 843 ft 2 kts 198°
2026-05-06 22:03 44.88435 -93.21550 836 ft 2 kts 212°
2026-05-06 22:03 44.88448 -93.21536 837 ft 2 kts 230°
2026-05-06 22:03 44.88456 -93.21516 832 ft 2 kts 251°
2026-05-06 22:04 44.88459 -93.21493 835 ft 2 kts 268°
2026-05-06 22:04 44.88458 -93.21470 835 ft 2 kts 280°
2026-05-06 22:04 44.88455 -93.21449 833 ft 2 kts 288°
2026-05-06 22:04 44.88453 -93.21441 832 ft 0 kts 290°
2026-05-06 22:12 44.88455 -93.21450 835 ft 4 kts 290°
2026-05-06 22:13 44.88462 -93.21479 841 ft 9 kts 289°
2026-05-06 22:13 44.88465 -93.21491 833 ft 10 kts 288°
2026-05-06 22:13 44.88492 -93.21619 844 ft 17 kts 295°
2026-05-06 22:13 44.88538 -93.21754 837 ft 11 kts 246°
2026-05-06 22:14 44.88490 -93.21835 840 ft 11 kts 220°
2026-05-06 22:14 44.88441 -93.21907 835 ft 10 kts 226°
2026-05-06 22:14 44.88394 -93.21973 836 ft 10 kts 224°
2026-05-06 22:14 44.88338 -93.22047 838 ft 12 kts 223°
2026-05-06 22:15 44.88314 -93.22054 838 ft 1 kts 121°
2026-05-06 22:15 44.88305 -93.22035 839 ft 4 kts 121°
2026-05-06 22:15 44.88290 -93.21996 831 ft 5 kts 117°
2026-05-06 22:15 44.88260 -93.21913 836 ft 18 kts 117°
2026-05-06 22:16 44.88166 -93.21700 835 ft 33 kts 121°
2026-05-06 22:16 44.88044 -93.21419 829 ft 34 kts 124°
2026-05-06 22:16 44.87924 -93.21138 832 ft 33 kts 120°
2026-05-06 22:16 44.87807 -93.20866 835 ft 33 kts 125°
2026-05-06 22:17 44.87684 -93.20589 828 ft 34 kts 122°
2026-05-06 22:17 44.87560 -93.20302 830 ft 34 kts 121°
2026-05-06 22:17 44.87460 -93.20088 832 ft 10 kts 146°
2026-05-06 22:17 44.87421 -93.20086 831 ft 4 kts 198°
2026-05-06 22:18 44.87385 -93.20134 830 ft 14 kts 247°
2026-05-06 22:18 44.87433 -93.20316 828 ft 38 kts 302°
2026-05-06 22:18 44.87704 -93.20934 834 ft 110 kts 301°
2026-05-06 22:18 44.88214 -93.22111 1038 ft 151 kts 302°
2026-05-06 22:19 44.88740 -93.23329 2035 ft 136 kts 300°
2026-05-06 22:19 44.88813 -93.24423 3250 ft 107 kts 240°
2026-05-06 22:19 44.88025 -93.24808 3516 ft 151 kts 194°
2026-05-06 22:19 44.87265 -93.25586 3965 ft 127 kts 245°
2026-05-06 22:20 44.86758 -93.26763 4299 ft 153 kts 244°
2026-05-06 22:20 44.86182 -93.28120 4750 ft 167 kts 244°
2026-05-06 22:20 44.85571 -93.29560 5294 ft 175 kts 243°
2026-05-06 22:20 44.84937 -93.31050 5890 ft 179 kts 243°
2026-05-06 22:21 44.84291 -93.32554 6514 ft 180 kts 243°
2026-05-06 22:21 44.83635 -93.34068 7082 ft 181 kts 243°
2026-05-06 22:21 44.82981 -93.35564 7650 ft 182 kts 243°
2026-05-06 22:21 44.82313 -93.37079 8211 ft 183 kts 243°
2026-05-06 22:22 44.81628 -93.38608 8745 ft 185 kts 243°
2026-05-06 22:22 44.80765 -93.39962 9296 ft 192 kts 218°
2026-05-06 22:22 44.79657 -93.40973 9874 ft 186 kts 228°
2026-05-06 22:22 44.78743 -93.42212 10392 ft 180 kts 234°
2026-05-06 22:23 44.77949 -93.43534 10905 ft 174 kts 240°
2026-05-06 22:23 44.77249 -93.44880 11422 ft 167 kts 243°
2026-05-06 22:23 44.76616 -93.46212 11961 ft 160 kts 246°
2026-05-06 22:23 44.76034 -93.47502 12485 ft 152 kts 247°
2026-05-06 22:24 44.75502 -93.48717 12989 ft 140 kts 249°
2026-05-06 22:24 44.75010 -93.49846 13376 ft 135 kts 249°